| time (UTC) | temp C | wind direction | speed KPH | gust KPH | rain 1hr cm | rain 24hr cm | rain mn cm | humidity % | barometer mb |
| 20260506134510 | 14 | 265 | 0.0 | 0.0 | 0.03 | 5.41 | 4.39 | 1 | 1004.5 |
| 20260506133010 | 14 | 264 | 1.6 | 9.7 | 0.20 | 5.41 | 4.39 | 1 | 1004.6 |
| 20260506131735 | 15 | 41 | 0.0 | 0.0 | 0.43 | 5.41 | 4.39 | 1 | 1004.5 |
| 20260506131510 | 15 | 41 | 0.0 | 0.0 | 0.43 | 5.41 | 4.39 | 1 | 1004.5 |
| 20260506130010 | 13 | 41 | 0.0 | 0.0 | 0.58 | 5.41 | 4.39 | 1 | 1004.4 |
| 20260506124510 | 13 | 41 | 0.0 | 0.0 | 0.58 | 5.38 | 4.37 | 1 | 1004.4 |
| 20260506123010 | 12 | 41 | 0.0 | 0.0 | 0.58 | 5.21 | 4.19 | 1 | 1004.5 |
| 20260506121510 | 12 | 41 | 0.0 | 8.0 | 0.51 | 4.98 | 3.96 | 1 | 1004.2 |
| 20260506120010 | 12 | 41 | 3.2 | 6.4 | 0.61 | 4.83 | 3.81 | 1 | 1004.2 |
| 20260506114510 | 13 | 40 | 0.0 | 8.0 | 0.61 | 4.80 | 3.78 | 1 | 1004.2 |
| 20260506113010 | 12 | 40 | 0.0 | 0.0 | 0.43 | 4.62 | 3.61 | 1 | 1004.1 |
| 20260506111510 | 12 | 40 | 0.0 | 0.0 | 0.28 | 4.47 | 3.45 | 1 | 1004.1 |
| 20260506110010 | 13 | 40 | 0.0 | 0.0 | 0.03 | 4.22 | 3.20 | 1 | 1004.1 |
| 20260506104510 | 13 | 36 | 0.0 | 0.0 | 0.00 | 4.19 | 3.17 | 1 | 1004.1 |
| 20260506103010 | 13 | 36 | 3.2 | 9.7 | 0.00 | 4.19 | 3.17 | 1 | 1004.1 |
| 20260506101510 | 13 | 20 | 1.6 | 0.0 | 0.00 | 4.19 | 3.17 | 1 | 1004.0 |
| 20260506100010 | 13 | 13 | 0.0 | 0.0 | 0.00 | 4.19 | 3.17 | 1 | 1004.0 |
| 20260506094510 | 12 | 13 | 0.0 | 0.0 | 0.00 | 4.19 | 3.17 | 1 | 1004.0 |
| 20260506093010 | 12 | 13 | 0.0 | 0.0 | 0.03 | 4.19 | 3.17 | 1 | 1004.0 |
| 20260506091510 | 12 | 13 | 0.0 | 0.0 | 0.05 | 4.19 | 3.17 | 1 | 1003.8 |
| 20260506090010 | 11 | 13 | 0.0 | 0.0 | 0.08 | 4.19 | 3.17 | 1 | 1004.0 |
| 20260506084516 | 11 | 13 | 0.0 | 0.0 | 0.08 | 4.19 | 3.17 | 1 | 1004.0 |
| 20260506084510 | 11 | 13 | 0.0 | 0.0 | 0.08 | 4.19 | 3.17 | 1 | 1004.0 |
| 20260506083016 | 11 | 13 | 0.0 | 0.0 | 0.08 | 4.17 | 3.15 | 1 | 1003.9 |
| 20260506083010 | 11 | 13 | 0.0 | 0.0 | 0.08 | 4.17 | 3.15 | 1 | 1003.9 |
| 20260506081510 | 11 | 13 | 0.0 | 0.0 | 0.10 | 4.14 | 3.12 | 1 | 1003.7 |
| 20260506073010 | 11 | 13 | 0.0 | 6.4 | 0.08 | 4.09 | 3.07 | 1 | 1003.6 |
| 20260506071515 | 11 | 13 | 0.0 | 0.0 | 0.03 | 4.04 | 3.02 | 1 | 1003.6 |
| 20260506071510 | 11 | 13 | 0.0 | 0.0 | 0.03 | 4.04 | 3.02 | 1 | 1003.6 |
| 20260506061510 | 11 | 13 | 0.0 | 0.0 | 0.03 | 4.01 | 3.00 | 1 | 1003.6 |
| 20260506050428 | 10 | 13 | 0.0 | 0.0 | 0.03 | 3.99 | 2.97 | 1 | 1003.4 |
| 20260506044511 | 10 | 13 | 0.0 | 0.0 | 0.03 | 3.99 | 2.97 | 1 | 1003.6 |
| 20260506043351 | 10 | 13 | 0.0 | 0.0 | 0.08 | 3.99 | 2.97 | 1 | 1003.6 |
| 20260506043011 | 10 | 13 | 0.0 | 0.0 | 0.08 | 3.99 | 2.97 | 1 | 1003.6 |
| 20260506041516 | 11 | 13 | 0.0 | 0.0 | 0.10 | 3.96 | 2.95 | 1 | 1003.6 |
| 20260506041511 | 11 | 13 | 0.0 | 0.0 | 0.10 | 3.96 | 2.95 | 1 | 1003.6 |
| 20260506040011 | 11 | 13 | 0.0 | 0.0 | 0.25 | 3.96 | 2.95 | 1 | 1003.5 |
| 20260506034511 | 11 | 13 | 0.0 | 0.0 | 0.38 | 3.99 | 2.95 | 1 | 1003.5 |
| 20260506033434 | 11 | 13 | 0.0 | 0.0 | 0.46 | 3.94 | 2.90 | 1 | 1003.5 |
| 20260506033011 | 11 | 13 | 0.0 | 0.0 | 0.46 | 3.94 | 2.90 | 1 | 1003.5 |
| 20260506031516 | 11 | 13 | 0.0 | 0.0 | 0.56 | 3.89 | 2.84 | 1 | 1003.7 |
| 20260506031511 | 11 | 13 | 0.0 | 0.0 | 0.56 | 3.89 | 2.84 | 1 | 1003.7 |
| 20260506030123 | 11 | 13 | 0.0 | 3.2 | 0.56 | 3.73 | 2.69 | 1 | 1003.9 |
| 20260506030018 | 11 | 13 | 0.0 | 3.2 | 0.56 | 3.73 | 2.69 | 1 | 1003.9 |
| 20260506030011 | 11 | 13 | 0.0 | 3.2 | 0.56 | 3.73 | 2.69 | 1 | 1003.9 |
| 20260506024511 | 11 | 13 | 0.0 | 0.0 | 0.53 | 3.63 | 2.57 | 1 | 1004.1 |
| 20260506023350 | 11 | 13 | 0.0 | 0.0 | 0.69 | 3.51 | 2.44 | 1 | 1004.3 |
| 20260506023011 | 11 | 13 | 0.0 | 0.0 | 0.69 | 3.51 | 2.44 | 1 | 1004.3 |
| 20260506021518 | 11 | 13 | 0.0 | 0.0 | 0.74 | 3.35 | 2.29 | 1 | 1004.3 |
| 20260506021511 | 11 | 13 | 0.0 | 0.0 | 0.74 | 3.35 | 2.29 | 1 | 1004.3 |
| 20260506020011 | 11 | 13 | 0.0 | 0.0 | 0.69 | 3.20 | 2.13 | 1 | 1004.3 |
| 20260506014511 | 11 | 13 | 0.0 | 0.0 | 0.71 | 3.10 | 2.03 | 1 | 1004.4 |
| 20260506013011 | 11 | 13 | 0.0 | 0.0 | 0.51 | 2.82 | 1.75 | 1 | 1004.3 |
| 20260506011511 | 11 | 13 | 0.0 | 0.0 | 0.43 | 2.62 | 1.55 | 1 | 1004.5 |
| 20260506010011 | 11 | 13 | 0.0 | 0.0 | 0.46 | 2.51 | 1.45 | 1 | 1004.4 |
| 20260506004511 | 11 | 13 | 0.0 | 0.0 | 0.41 | 2.39 | 1.32 | 1 | 1004.5 |
| 20260506003011 | 11 | 13 | 0.0 | 0.0 | 0.43 | 2.31 | 1.24 | 1 | 1004.7 |
| 20260506001511 | 11 | 13 | 0.0 | 0.0 | 0.41 | 2.18 | 1.12 | 1 | 1004.8 |
| 20260506000016 | 12 | 13 | 0.0 | 0.0 | 0.53 | 2.06 | 0.99 | 1 | 1005.0 |
| 20260506000011 | 12 | 13 | 0.0 | 0.0 | 0.53 | 2.06 | 0.99 | 1 | 1005.0 |
| 20260505234517 | 12 | 13 | 0.0 | 0.0 | 0.71 | 1.98 | 0.91 | 1 | 1005.1 |
| 20260505234511 | 12 | 13 | 0.0 | 0.0 | 0.71 | 1.98 | 0.91 | 1 | 1005.1 |
| 20260505233011 | 12 | 13 | 0.0 | 0.0 | 0.74 | 1.88 | 0.81 | 1 | 1005.2 |
| 20260505231511 | 12 | 13 | 0.0 | 0.0 | 0.69 | 1.78 | 0.71 | 1 | 1005.3 |
| 20260505230011 | 12 | 13 | 0.0 | 0.0 | 0.46 | 1.52 | 0.46 | 1 | 1005.4 |
| 20260505224516 | 12 | 13 | 0.0 | 0.0 | 0.25 | 1.27 | 0.20 | 1 | 1005.4 |
| 20260505224511 | 12 | 13 | 0.0 | 0.0 | 0.25 | 1.27 | 0.20 | 1 | 1005.4 |
| 20260505223011 | 12 | 13 | 0.0 | 0.0 | 0.18 | 1.14 | 0.08 | 1 | 1005.5 |
| 20260505221511 | 12 | 13 | 0.0 | 0.0 | 0.18 | 1.09 | 0.03 | 1 | 1005.5 |
| 20260505220011 | 12 | 13 | 0.0 | 0.0 | 0.20 | 1.07 | 0.00 | 1 | 1005.5 |
| 20260505214511 | 12 | 13 | 0.0 | 0.0 | 0.20 | 1.02 | 1.02 | 1 | 1005.7 |
| 20260505213016 | 12 | 13 | 0.0 | 0.0 | 0.25 | 0.97 | 0.97 | 1 | 1005.7 |
| 20260505213011 | 12 | 13 | 0.0 | 0.0 | 0.25 | 0.97 | 0.97 | 1 | 1005.7 |
| 20260505211511 | 12 | 13 | 0.0 | 0.0 | 0.28 | 0.91 | 0.91 | 1 | 1005.8 |
| 20260505210011 | 12 | 13 | 0.0 | 0.0 | 0.30 | 0.86 | 0.86 | 1 | 1005.7 |
| 20260505204511 | 12 | 13 | 0.0 | 0.0 | 0.36 | 0.81 | 0.81 | 1 | 1005.8 |
| 20260505203011 | 12 | 13 | 0.0 | 8.0 | 0.28 | 0.71 | 0.71 | 1 | 1005.7 |
| 20260505201511 | 12 | 13 | 0.0 | 0.0 | 0.23 | 0.64 | 0.64 | 1 | 1005.8 |
| 20260505200011 | 12 | 13 | 0.0 | 0.0 | 0.15 | 0.56 | 0.56 | 1 | 1005.8 |
| 20260505194511 | 12 | 13 | 0.0 | 0.0 | 0.08 | 0.61 | 0.46 | 1 | 1005.9 |
| 20260505193011 | 12 | 13 | 0.0 | 0.0 | 0.08 | 0.58 | 0.43 | 1 | 1005.8 |
| 20260505191511 | 12 | 13 | 0.0 | 0.0 | 0.08 | 0.56 | 0.41 | 1 | 1006.0 |
| 20260505190011 | 12 | 13 | 0.0 | 0.0 | 0.10 | 0.56 | 0.41 | 1 | 1005.9 |
| 20260505184511 | 12 | 13 | 1.6 | 6.4 | 0.10 | 0.86 | 0.38 | 1 | 1005.7 |
| 20260505183011 | 13 | 14 | 0.0 | 0.0 | 0.10 | 0.84 | 0.36 | 1 | 1005.8 |
| 20260505181511 | 13 | 355 | 1.6 | 14.5 | 0.13 | 0.81 | 0.33 | 1 | 1005.6 |
| 20260505180011 | 13 | 26 | 0.0 | 6.4 | 0.15 | 0.79 | 0.30 | 1 | 1005.8 |
| 20260505174511 | 13 | 34 | 1.6 | 14.5 | 0.20 | 0.81 | 0.28 | 1 | 1005.6 |
| 20260505173019 | 13 | 5 | 1.6 | 14.5 | 0.20 | 0.79 | 0.25 | 1 | 1005.6 |
| 20260505173011 | 13 | 5 | 1.6 | 14.5 | 0.20 | 0.79 | 0.25 | 1 | 1005.6 |
| 20260505171511 | 13 | 53 | 0.0 | 0.0 | 0.15 | 0.74 | 0.20 | 1 | 1005.9 |
| 20260505170011 | 14 | 53 | 1.6 | 8.0 | 0.10 | 0.69 | 0.15 | 1 | 1006.0 |
| 20260505164511 | 15 | 57 | 1.6 | 9.7 | 0.03 | 0.61 | 0.08 | 1 | 1005.9 |
| 20260505163011 | 15 | 56 | 3.2 | 8.0 | 0.00 | 0.58 | 0.05 | 1 | 1006.3 |
| 20260505161511 | 16 | 56 | 1.6 | 11.3 | 0.00 | 0.58 | 0.05 | 1 | 1006.2 |
| 20260505153011 | 16 | 36 | 3.2 | 11.3 | 0.00 | 0.58 | 0.05 | 1 | 1006.4 |
| 20260505151511 | 16 | 65 | 4.8 | 16.1 | 0.00 | 0.58 | 0.05 | 1 | 1006.2 |